IZ1UQG-2 Weather Reports


Display with metric or nautical units.
time (UTC)temp
F
wind
direction
speed
MPH
gust
MPH
rain 1hr
in
rain 24hr
in
rain mn
in
humidity
%
barometer
mb
20260831195605 74 274 2.0 6.0 0.00 5.04 5.04 72 1012.7
20260831195204 74 292 1.0 4.0 0.00 5.04 5.04 72 1012.7
20260831194805 74 259 2.0 5.0 0.00 5.04 5.04 72 1012.7
20260831194403 75 233 2.0 5.0 0.00 5.04 5.04 71 1012.5
20260831194004 75 219 2.0 5.0 0.00 5.04 5.04 71 1012.5
20260831193603 75 213 3.0 6.0 0.00 5.04 5.04 71 1012.4
20260831193204 75 217 2.0 6.0 0.00 5.04 5.04 71 1012.3
20260831192803 75 220 1.0 5.0 0.00 5.04 5.04 70 1012.2
20260831192404 76 207 1.0 4.0 0.00 5.04 5.04 70 1012.2
20260831192003 75 212 2.0 4.0 0.00 5.04 5.04 70 1012.3
20260831191606 75 220 3.0 6.0 0.00 5.04 5.04 70 1012.2
20260831191204 75 223 3.0 6.0 0.00 5.04 5.04 70 1012.2
20260831190805 75 226 3.0 6.0 0.00 5.04 5.04 70 1012.1
20260831190405 76 224 3.0 7.0 0.00 5.04 5.04 70 1012.0
20260831190006 76 220 3.0 7.0 0.00 5.04 5.04 70 1012.0
20260831185604 76 220 2.0 7.0 0.00 5.04 5.04 70 1012.0
20260831185205 76 234 1.0 4.0 0.00 5.04 5.04 69 1011.9
20260831184805 76 247 1.0 3.0 0.00 5.04 5.04 69 1011.9
20260831184006 76 264 1.0 3.0 0.00 5.04 5.04 69 1011.9
20260831183205 77 277 2.0 5.0 0.00 5.04 5.04 69 1011.6
20260831182804 76 249 3.0 6.0 0.00 5.04 5.04 69 1011.6
20260831182405 77 237 4.0 7.0 0.00 5.04 5.04 69 1011.5
20260831182005 77 239 4.0 7.0 0.00 5.04 5.04 69 1011.4
20260831181204 78 238 4.0 8.0 0.00 5.04 5.04 68 1011.3
20260831180805 78 224 4.0 8.0 0.00 5.04 5.04 67 1011.2
20260831180404 78 222 4.0 8.0 0.00 5.04 5.04 67 1011.1
20260831180006 78 221 4.0 8.0 0.00 5.04 5.04 66 1011.2
20260831175604 78 219 4.0 8.0 0.00 5.04 5.04 66 1011.1
20260831174805 78 222 4.0 8.0 0.00 5.04 5.04 66 1011.1
20260831174405 78 228 3.0 7.0 0.00 5.04 5.04 66 1011.1
20260831173604 79 229 4.0 7.0 0.00 5.04 5.04 66 1011.0
20260831173205 79 227 4.0 7.0 0.00 5.04 5.04 66 1011.0
20260831172404 79 220 4.0 7.0 0.00 5.04 5.04 67 1011.1
20260831172005 79 217 5.0 7.0 0.00 5.04 5.04 66 1011.0
20260831171605 80 213 5.0 7.0 0.00 5.04 5.04 66 1011.0
20260831171205 80 210 4.0 7.0 0.00 5.04 5.04 64 1011.0
20260831170805 80 213 4.0 7.0 0.00 5.04 5.04 63 1011.1
20260831170404 80 222 3.0 5.0 0.00 5.04 5.04 64 1011.1
20260831165605 80 232 3.0 6.0 0.00 5.04 5.04 62 1011.1
20260831165205 80 234 4.0 6.0 0.00 5.04 5.04 62 1011.1
20260831164804 81 232 4.0 5.0 0.00 5.04 5.04 62 1011.1
20260831164405 81 220 4.0 7.0 0.00 5.04 5.04 62 1011.0
20260831164005 81 209 4.0 7.0 0.00 5.04 5.04 62 1011.0
20260831163605 81 219 4.0 7.0 0.00 5.04 5.04 61 1011.0
20260831163204 81 237 2.0 5.0 0.00 5.04 5.04 61 1011.1
20260831162805 82 239 3.0 6.0 0.00 5.04 5.04 61 1011.0
20260831162405 82 221 3.0 6.0 0.00 5.04 5.04 61 1011.0
20260831162005 82 213 3.0 6.0 0.00 5.04 5.04 60 1011.0
20260831161604 83 215 3.0 6.0 0.00 5.04 5.04 59 1010.9
20260831161204 83 227 3.0 6.0 0.00 5.04 5.04 58 1011.1
20260831160805 83 235 3.0 6.0 0.00 5.04 5.04 58 1011.1
20260831160405 83 234 3.0 6.0 0.00 5.04 5.04 58 1011.1
20260831155605 84 205 4.0 6.0 0.00 5.04 5.04 57 1011.0
20260831155204 84 204 3.0 6.0 0.00 5.04 5.04 56 1011.0
20260831154805 84 200 2.0 5.0 0.00 5.04 5.04 56 1011.0
20260831154404 84 201 1.0 4.0 0.00 5.04 5.04 54 1011.0
20260831154005 84 220 1.0 4.0 0.00 5.04 5.04 56 1011.2
20260831153605 85 285 1.0 3.0 0.00 5.04 5.04 56 1011.1
20260831152806 84 293 0.0 2.0 0.00 5.04 5.04 54 1011.0
20260831152404 84 285 1.0 3.0 0.00 5.04 5.04 55 1011.2
20260831152005 84 275 1.0 3.0 0.00 5.04 5.04 55 1011.2
20260831151205 85 258 0.0 2.0 0.00 5.04 5.04 54 1011.3
20260831150805 84 226 1.0 2.0 0.00 5.04 5.04 53 1011.3
20260831150405 85 146 1.0 5.0 0.00 5.04 5.04 53 1011.2
20260831150005 85 110 2.0 5.0 0.00 5.04 5.04 50 1011.1
20260831145605 85 85 2.0 5.0 0.00 5.04 5.04 49 1011.2
20260831145204 85 78 2.0 4.0 0.00 5.04 5.04 49 1011.1
20260831144005 85 89 4.0 7.0 0.00 5.04 5.04 50 1011.3
20260831143205 85 90 4.0 8.0 0.00 5.04 5.04 50 1011.3
20260831142804 85 83 4.0 9.0 0.00 5.04 5.04 50 1011.2
20260831142406 85 78 5.0 9.0 0.00 5.04 5.04 50 1011.2
20260831142006 85 75 5.0 8.0 0.00 5.04 5.04 50 1011.4
20260831141205 86 69 4.0 8.0 0.00 5.04 5.04 49 1011.1
20260831140805 86 70 3.0 8.0 0.00 5.04 5.04 49 1011.2
20260831140404 87 46 3.0 9.0 0.00 5.04 5.04 48 1011.0
20260831140005 86 55 4.0 9.0 0.00 5.04 5.04 50 1011.2
20260831135604 85 75 4.0 8.0 0.00 5.04 5.04 50 1011.2
20260831135205 85 90 5.0 10.0 0.00 5.04 5.04 49 1011.2
20260831134404 86 88 6.0 10.0 0.00 5.04 5.04 49 1011.1
20260831133604 86 90 6.0 10.0 0.00 5.04 5.04 50 1011.2
20260831133205 86 96 5.0 10.0 0.00 5.04 5.04 50 1011.3
20260831132404 85 72 6.0 11.0 0.00 5.04 5.04 51 1011.4
20260831132005 85 81 7.0 11.0 0.00 5.04 5.04 53 1011.4
20260831131605 85 85 6.0 11.0 0.00 5.04 5.04 52 1011.4
20260831131205 86 82 4.0 11.0 0.00 5.04 5.04 51 1011.3
20260831130805 87 73 5.0 9.0 0.00 5.04 5.04 54 1011.4
20260831130404 85 71 5.0 8.0 0.00 5.04 5.04 54 1011.5
20260831130005 86 76 5.0 8.0 0.00 5.04 5.04 53 1011.5
20260831125604 85 92 5.0 10.0 0.00 5.04 5.04 54 1011.6
20260831125205 85 88 6.0 10.0 0.00 5.04 5.04 54 1011.6
20260831124806 85 88 6.0 10.0 0.00 5.04 5.04 54 1011.7
20260831124405 85 87 6.0 10.0 0.00 5.04 5.04 54 1011.7
20260831124005 84 92 6.0 10.0 0.00 5.04 5.04 54 1011.7
20260831123605 85 91 4.0 10.0 0.00 5.04 5.04 53 1011.8
20260831123205 85 89 2.0 10.0 0.00 6.04 5.04 53 1011.7
20260831122805 85 93 3.0 9.0 0.00 6.05 5.04 53 1011.8
20260831122404 85 102 5.0 9.0 0.00 6.05 5.04 53 1011.7
20260831122005 85 104 6.0 9.0 0.00 6.05 5.04 53 1011.7
20260831121604 85 98 6.0 9.0 0.00 6.05 5.04 53 1011.8
20260831121205 84 88 6.0 7.0 0.00 6.05 5.04 54 1011.9
20260831120404 84 55 5.0 9.0 0.00 7.06 5.04 54 1011.9
20260831120005 84 41 4.0 9.0 0.00 7.06 5.04 54 1011.9
20260831115604 84 50 4.0 8.0 0.00 7.06 5.04 53 1012.0
20260831115205 84 89 4.0 9.0 0.00 7.06 5.04 53 1012.0
20260831114805 84 95 5.0 11.0 0.00 7.06 5.04 54 1012.0
20260831114404 84 90 7.0 11.0 0.00 7.06 5.04 54 1012.0
20260831114005 83 83 7.0 11.0 0.00 7.06 5.04 55 1012.2
20260831113604 83 87 6.0 12.0 1.00 7.06 5.04 53 1012.1
20260831112804 83 93 6.0 12.0 1.00 8.06 5.04 53 1012.3
20260831112404 83 83 5.0 11.0 1.00 9.07 5.04 52 1012.3
20260831111204 84 87 4.0 10.0 1.01 1.00 5.04 52 1012.4
20260831110804 84 76 4.0 10.0 1.01 1.00 5.04 51 1012.4
20260831110404 83 78 6.0 10.0 1.01 1.00 5.04 52 1012.4
20260831110004 83 78 5.0 10.0 1.01 1.00 5.04 52 1012.5
20260831105204 84 47 4.0 8.0 2.01 1.00 5.04 52 1012.4
20260831104805 83 38 4.0 8.0 2.01 1.00 5.04 53 1012.6
20260831104404 83 33 3.0 8.0 2.02 1.00 5.04 51 1012.6
20260831103205 82 0 0.0 0.0 2.02 1.00 4.04 54 1012.6
20260831102805 82 104 2.0 5.0 2.02 1.10 4.04 54 1012.6
20260831102404 82 91 3.0 5.0 2.02 1.10 4.04 54 1012.8
20260831102005 83 88 3.0 5.0 2.02 1.10 4.03 54 1012.8
20260831101604 82 45 3.0 5.0 2.02 1.20 4.03 53 1012.8
20260831100805 82 110 4.0 8.0 2.02 1.41 4.03 53 1012.8
20260831100405 82 113 3.0 8.0 2.02 1.41 4.03 54 1012.8
20260831100004 81 77 3.0 7.0 2.02 1.41 4.03 54 1012.9
20260831095605 81 53 2.0 6.0 3.02 1.51 4.03 56 1012.9
20260831095205 81 67 2.0 6.0 2.02 1.51 3.03 61 1012.9
20260831094804 81 35 2.0 5.0 2.02 1.51 3.03 61 1013.0
20260831094405 81 24 3.0 5.0 2.02 1.51 3.02 61 1013.0
20260831094006 80 41 3.0 5.0 2.02 1.51 3.02 61 1013.1
20260831093605 81 101 2.0 5.0 1.02 1.51 2.02 58 1013.2
20260831093205 81 108 2.0 6.0 1.01 1.51 2.02 58 1013.1
20260831092804 81 80 2.0 6.0 1.01 1.51 2.02 59 1013.1
20260831092405 80 2 1.0 2.0 1.01 1.51 2.02 59 1013.2
20260831092005 80 278 1.0 3.0 1.01 1.51 2.02 59 1013.2
20260831091605 80 128 1.0 4.0 1.01 1.51 2.02 59 1013.2
20260831090406 78 1 0.0 2.0 2.02 1.51 2.02 62 1013.5
20260831090005 80 0 0.0 0.0 1.02 1.41 1.02 62 1013.4
20260831085605 80 0 0.0 0.0 1.02 1.41 1.02 62 1013.5
20260831085204 80 14 1.0 5.0 1.02 1.41 1.02 66 1013.4
20260831084805 79 14 3.0 5.0 1.02 1.41 1.02 66 1013.4
20260831084405 79 12 5.0 5.0 1.01 1.41 1.01 66 1013.5
20260831083604 77 356 3.0 5.0 1.01 1.41 1.01 66 1013.5
20260831083205 77 348 2.0 4.0 1.01 1.41 1.01 66 1013.4
20260831082804 77 350 2.0 4.0 1.01 1.41 1.01 66 1013.5
20260831082404 76 352 2.0 5.0 1.01 1.41 1.01 67 1013.5
20260831081606 75 337 3.0 7.0 1.01 1.41 1.01 68 1013.6
20260831081204 75 341 5.0 8.0 0.00 1.31 0.00 70 1013.6
20260831080805 75 340 5.0 8.0 0.00 1.31 0.00 69 1013.5
20260831080404 74 344 5.0 8.0 0.00 1.31 0.00 69 1013.6
20260831080005 74 344 4.0 8.0 0.00 1.31 0.00 69 1013.6
20260831075605 74 350 3.0 5.0 0.00 1.31 0.00 68 1013.6
20260831075205 74 347 3.0 5.0 0.00 1.31 0.00 69 1013.5
20260831074805 74 338 3.0 5.0 0.00 1.31 0.00 70 1013.5
20260831074405 74 339 4.0 6.0 0.00 1.31 0.00 70 1013.5
20260831074004 74 345 4.0 8.0 0.00 1.31 0.00 71 1013.5
20260831073605 74 346 4.0 8.0 0.00 1.31 0.00 71 1013.5
20260831073204 73 350 4.0 8.0 0.00 1.31 0.00 71 1013.6
20260831072805 73 350 3.0 5.0 0.00 1.31 0.00 71 1013.6
20260831072405 73 358 2.0 5.0 0.00 1.31 0.00 71 1013.6
20260831072004 73 350 2.0 4.0 0.00 1.31 0.00 72 1013.7
20260831071605 73 343 2.0 4.0 0.00 1.31 0.00 72 1013.7
20260831070804 72 357 2.0 5.0 0.00 1.31 0.00 73 1013.7
20260831070406 72 354 4.0 7.0 0.00 1.31 0.00 73 1013.7
20260831070005 72 352 4.0 7.0 0.00 1.31 0.00 73 1013.6
20260831065604 72 350 3.0 6.0 0.00 1.31 0.00 72 1013.6
20260831065205 72 3 2.0 5.0 0.00 1.31 0.00 72 1013.7
20260831064805 73 4 2.0 5.0 0.00 1.31 0.00 72 1013.7
20260831064404 72 3 2.0 6.0 0.00 1.31 0.00 72 1013.9
20260831064005 72 355 4.0 7.0 0.00 1.31 0.00 72 1013.7
20260831063604 72 350 4.0 8.0 0.00 1.31 0.00 73 1013.8
20260831063204 72 347 4.0 8.0 0.00 1.31 0.00 74 1013.8
20260831062805 72 346 3.0 7.0 0.00 1.31 0.00 74 1013.8
20260831062404 72 341 2.0 4.0 0.00 1.31 0.00 75 1013.8
20260831062005 71 341 3.0 5.0 0.00 1.31 0.00 75 1013.8
20260831061605 71 344 3.0 5.0 0.00 1.31 0.00 76 1013.8
20260831061204 71 346 3.0 5.0 0.00 1.31 0.00 76 1013.8
20260831060805 71 345 3.0 5.0 0.00 1.31 0.00 76 1013.8
20260831060405 70 341 3.0 5.0 0.00 1.31 0.00 77 1013.8
20260831055604 71 345 3.0 5.0 0.00 1.31 0.00 77 1013.7
20260831055204 71 354 2.0 5.0 0.00 1.31 0.00 75 1013.7
20260831054805 71 21 1.0 4.0 0.00 1.31 0.00 75 1013.8
20260831054405 71 111 1.0 3.0 0.00 1.31 0.00 76 1013.8
20260831054004 70 111 1.0 3.0 0.00 1.31 0.00 77 1013.7
20260831053604 70 5 0.0 1.0 0.00 1.31 0.00 78 1013.7
20260831053204 70 5 0.0 1.0 0.00 1.31 0.00 78 1013.7
20260831052805 70 31 0.0 2.0 0.00 1.31 0.00 78 1013.6
20260831052404 70 60 1.0 3.0 0.00 1.31 0.00 78 1013.6
20260831052005 70 87 1.0 3.0 0.00 1.31 0.00 77 1013.5
20260831051604 70 98 1.0 3.0 0.00 1.31 0.00 78 1013.6
20260831051204 70 57 0.0 2.0 0.00 1.31 0.00 79 1013.6
20260831050805 69 52 0.0 2.0 0.00 1.31 0.00 80 1013.6
20260831050405 69 34 0.0 1.0 0.00 1.31 0.00 79 1013.5
20260831050005 70 8 0.0 2.0 0.00 1.31 0.00 79 1013.5
20260831045604 69 355 1.0 4.0 0.00 1.31 0.00 79 1013.5
20260831044804 70 27 2.0 4.0 0.00 1.31 0.00 78 1013.4
20260831044405 70 41 1.0 4.0 0.00 1.31 0.00 78 1013.4
20260831043604 70 70 1.0 7.0 0.00 1.31 0.00 77 1013.3
20260831043205 70 61 2.0 7.0 0.00 1.31 0.00 77 1013.3
20260831042804 70 25 2.0 6.0 0.00 1.31 0.00 77 1013.4
20260831042404 70 8 2.0 6.0 0.00 1.31 0.00 77 1013.4
20260831042006 70 356 2.0 6.0 0.00 1.31 0.00 78 1013.5
20260831041604 70 334 1.0 3.0 0.00 1.31 0.00 78 1013.4
20260831040804 70 320 0.0 1.0 0.00 1.31 0.00 78 1013.2
20260831040404 70 324 1.0 3.0 0.00 1.31 0.00 78 1013.2
20260831040005 71 306 1.0 3.0 0.00 1.31 0.00 77 1013.3
20260831035205 71 207 1.0 3.0 0.00 1.31 0.00 77 1013.4
20260831034405 70 204 3.0 5.0 0.00 1.31 0.00 78 1013.4
20260831034005 70 201 2.0 5.0 0.00 1.31 0.00 78 1013.5
20260831033605 70 204 3.0 9.0 0.00 1.31 0.00 78 1013.6
20260831033204 70 204 4.0 9.0 0.00 1.31 0.00 79 1013.7
20260831032806 70 212 4.0 8.0 0.00 1.31 0.00 79 1013.8
20260831032405 70 263 3.0 6.0 0.00 1.31 0.00 79 1013.8
20260831032005 70 334 3.0 7.0 0.00 1.31 0.00 79 1014.0
20260831031604 70 350 5.0 9.0 0.00 1.31 0.00 79 1013.9
20260831031204 70 351 5.0 9.0 0.00 1.31 0.00 78 1013.9
20260831030804 70 337 4.0 8.0 0.00 1.31 0.00 77 1013.9
20260831030004 72 300 1.0 4.0 0.00 1.31 0.00 74 1013.3
20260831025605 72 167 0.0 2.0 0.00 1.31 0.00 73 1013.1
20260831025205 72 162 1.0 3.0 0.00 1.31 0.00 74 1013.2
20260831024804 72 158 1.0 3.0 0.00 1.31 0.00 74 1013.3
20260831024404 72 154 1.0 3.0 0.00 1.31 0.00 75 1013.3
20260831023605 71 309 1.0 2.0 0.00 1.31 0.00 76 1013.6
20260831023204 71 315 1.0 3.0 0.00 1.31 0.00 76 1013.6
20260831022804 71 311 1.0 3.0 0.00 1.31 0.00 76 1013.6
20260831022405 71 300 1.0 3.0 0.00 1.31 0.00 76 1013.6
20260831022004 72 222 0.0 1.0 0.00 1.31 0.00 75 1013.7
20260831021605 72 190 0.0 2.0 0.00 1.31 0.00 76 1013.5
20260831021204 71 211 0.0 2.0 0.00 1.31 0.00 76 1013.5
20260831020804 71 241 0.0 2.0 0.00 1.31 0.00 76 1013.5
20260831020405 71 12 1.0 2.0 0.00 1.31 0.00 76 1013.5
20260831020004 71 348 1.0 4.0 0.00 1.31 0.00 76 1013.5
20260831015605 71 342 1.0 4.0 0.00 1.31 0.00 76 1013.6
20260831015205 71 335 1.0 4.0 0.00 1.31 0.00 76 1013.6
20260831014805 71 325 1.0 4.0 0.00 1.31 0.00 75 1013.5
20260831014404 71 312 1.0 4.0 0.00 1.31 0.00 76 1013.5
20260831014005 72 307 1.0 4.0 0.00 1.31 0.00 76 1013.5
20260831013604 72 274 0.0 2.0 0.00 1.31 0.00 75 1013.5
20260831013205 72 272 0.0 2.0 0.00 1.31 0.00 75 1013.6
20260831012804 72 286 0.0 2.0 0.00 1.31 0.00 75 1013.7
20260831012404 72 311 0.0 2.0 0.00 1.31 0.00 75 1013.7
20260831012005 72 328 1.0 2.0 0.00 1.31 0.00 75 1013.7
20260831011205 72 349 2.0 5.0 0.00 1.31 0.00 75 1013.5
20260831010804 72 342 2.0 5.0 0.00 1.31 0.00 75 1013.6
20260831010404 72 330 3.0 5.0 0.00 1.31 0.00 74 1013.6
20260831010005 72 322 2.0 5.0 0.00 1.31 0.00 74 1013.6
20260831005604 72 317 1.0 4.0 0.00 1.31 0.00 74 1013.6
20260831005204 72 333 0.0 2.0 0.00 1.31 0.00 74 1013.6
20260831004805 72 336 0.0 1.0 0.00 1.31 0.00 75 1013.7
20260831004404 72 332 0.0 3.0 0.00 1.31 0.00 74 1013.6
20260831004005 72 270 1.0 3.0 0.00 1.31 0.00 75 1013.7
20260831003604 72 264 2.0 4.0 0.00 1.31 0.00 76 1013.6
20260831003204 72 273 2.0 4.0 0.00 1.31 0.00 75 1013.6
20260831002805 72 287 1.0 4.0 0.00 1.31 0.00 75 1013.6
20260831002404 72 276 1.0 3.0 0.00 1.31 0.00 74 1013.5
20260831002005 73 280 1.0 3.0 0.00 1.31 0.00 74 1013.5
20260831001604 73 286 2.0 3.0 0.00 1.31 0.00 73 1013.5
20260831001205 73 297 1.0 3.0 0.00 1.31 0.00 74 1013.5
20260831000805 73 333 1.0 4.0 0.00 1.31 0.00 74 1013.5
20260831000404 72 342 2.0 4.0 0.00 1.31 0.00 74 1013.6
20260831000005 72 325 2.0 3.0 0.00 1.31 0.00 74 1013.7
20260830235604 72 311 2.0 3.0 0.00 1.31 0.00 75 1013.7
20260830235205 72 306 1.0 3.0 0.00 1.31 0.00 75 1013.7
20260830234805 73 226 1.0 5.0 0.00 1.31 0.00 74 1013.7
20260830234404 73 220 2.0 5.0 0.00 1.31 0.00 74 1013.6
20260830234004 73 222 2.0 5.0 0.00 1.31 0.00 74 1013.7
20260830233605 73 249 1.0 2.0 0.00 1.31 0.00 73 1013.7
20260830233204 74 245 1.0 2.0 0.00 1.31 0.00 72 1013.7
20260830232804 73 244 1.0 2.0 0.00 1.31 0.00 72 1013.8
20260830232004 74 256 1.0 2.0 0.00 1.31 0.00 72 1013.7
20260830231605 74 287 1.0 3.0 0.00 1.31 0.00 72 1013.8
20260830231204 73 289 1.0 3.0 0.00 1.31 0.00 72 1013.8
20260830230804 73 289 1.0 3.0 0.00 1.31 0.00 72 1013.9
20260830230405 73 294 1.0 4.0 0.00 1.31 0.00 72 1013.8
20260830230004 73 303 1.0 4.0 0.00 1.31 0.00 72 1013.9
20260830225605 73 304 2.0 5.0 0.00 1.31 0.00 72 1013.8
20260830225204 73 305 2.0 5.0 0.00 1.31 0.00 72 1013.8
20260830224804 73 304 1.0 5.0 0.00 1.31 0.00 72 1013.8
20260830224404 74 306 0.0 2.0 0.00 1.31 0.00 73 1013.7
20260830224004 74 307 0.0 2.0 0.00 1.31 0.00 72 1013.6
20260830223604 74 302 1.0 2.0 0.00 1.31 0.00 72 1013.7
20260830223205 74 265 1.0 2.0 0.00 1.31 0.00 73 1013.7
20260830222804 74 240 1.0 2.0 0.00 1.31 0.00 73 1013.7
20260830222404 73 239 1.0 3.0 0.00 1.31 0.00 73 1013.8
20260830222005 73 238 1.0 3.0 0.00 1.31 0.00 73 1013.8
20260830221604 74 247 1.0 3.0 0.00 1.31 0.00 72 1013.7
20260830221205 74 263 1.0 3.0 0.00 1.31 0.00 71 1013.7
20260830220805 74 251 1.0 3.0 0.00 1.31 0.00 72 1013.7
20260830220405 73 240 1.0 3.0 0.00 1.31 0.00 72 1013.8
20260830220007 73 237 2.0 3.0 0.00 1.31 0.00 73 1013.7
20260830215604 73 245 1.0 3.0 0.00 1.31 1.31 73 1013.7
20260830215204 74 266 1.0 3.0 0.00 1.31 1.31 72 1013.7
20260830214804 74 258 1.0 4.0 0.00 1.31 1.31 72 1013.6
20260830214404 74 259 1.0 4.0 0.00 1.31 1.31 72 1013.6
20260830214006 74 282 1.0 2.0 0.00 1.31 1.31 72 1013.6
20260830213604 74 267 1.0 2.0 0.00 1.31 1.31 73 1013.6
20260830212804 73 228 2.0 5.0 0.00 1.31 1.31 73 1013.7
20260830211604 73 250 2.0 6.0 0.00 1.31 1.31 73 1013.4
20260830210005 74 300 0.0 1.0 0.00 1.31 1.31 71 1013.3
20260830205604 74 305 0.0 2.0 0.00 1.31 1.31 70 1013.3
20260830205205 75 325 0.0 2.0 0.00 1.31 1.31 71 1013.2
20260830204404 75 346 1.0 3.0 0.00 1.31 1.31 69 1013.2
20260830203605 74 346 3.0 4.0 0.00 1.31 1.31 72 1013.1
20260830203204 74 333 3.0 4.0 0.00 1.31 1.31 71 1013.2
20260830202404 75 297 2.0 5.0 0.00 1.31 1.31 70 1013.1
20260830202006 75 276 2.0 5.0 0.00 1.31 1.31 69 1013.1
20260830201604 75 282 1.0 4.0 0.00 1.31 1.31 68 1013.1
20260830201205 75 310 1.0 3.0 0.00 1.31 1.31 68 1013.1
20260830200804 75 303 2.0 5.0 0.00 1.31 1.31 68 1013.0
20260830200405 75 280 2.0 6.0 0.00 1.31 1.31 68 1012.9
20260830200004 75 254 3.0 6.0 0.00 1.31 1.31 69 1012.9